Regional Weather Roundup
Issued by NWS

Home | Current Version | Previous Version | Text Only | Print | Product List | Glossary On
Versions: 1 2 3 4 5 6 7 8 9 10 11 12 13 14 15 16 17 18 19 20 21 22 23 24 25 26 27 28 29 30 31 32 33 34 35 36 37 38 39 40 41 42 43 44 45 46 47 48 49 50
000
ASUS43 KTOP 281259
RWRKS

WEATHER ROUNDUP FOR KANSAS
NATIONAL WEATHER SERVICE GOODLAND KS
800 AM CDT TUE MAR 28 2017

NOTE:  "FAIR" INDICATES FEW OR NO CLOUDS BELOW 12,000 FEET WITH NO
SIGNIFICANT WEATHER AND/OR OBSTRUCTIONS TO VISIBILITY.

KSZ001>006-013>018-027>032-041>047-281400-
NORTHWEST KANSAS

CITY           SKY/WX    TMP DP  RH WIND       PRES   REMARKS
GOODLAND       CLOUDY    44  44 100 SE16G24   29.88F FOG
HAYS             N/A     43  42  97 E6        30.01R FOG
HILL CITY      LGT RAIN  46  46 100 SE9       29.99R FOG
RUSSELL        MOCLDY    43  42  97 E6        29.99R FOG
$$

KSZ061>065-074>080-084>089-281400-
SOUTHWEST KANSAS

CITY           SKY/WX    TMP DP  RH WIND       PRES   REMARKS
DODGE CITY     FOG       45  44  97 SE13      29.96R VSB 3/4
ELKHART          N/A     45  35  68 SE17        N/A
GARDEN CITY    CLOUDY    46  44  93 SE10      29.93R FOG
GREAT BEND     CLOUDY    45  44  97 SE8       30.00R FOG
LIBERAL        CLOUDY    46  41  81 E21       29.90S
$$

KSZ066>073-081>083-090>101-281400-
SOUTHEAST KANSAS

CITY           SKY/WX    TMP DP  RH WIND       PRES   REMARKS
CHANUTE        CLOUDY    51  47  86 E5        30.03R
COFFEYVILLE    CLOUDY    52  47  83 E5        30.03R
HUTCHINSON     CLOUDY    49  46  90 E6        30.01S
MEDICINE LODGE   N/A     47  45  93 E5        29.99R
NEWTON         CLOUDY    48  47  96 E5        30.03R
PARSONS        CLOUDY    52  47  83 VRB5      30.04R
WICHITA INTL   CLOUDY    50  45  83 E9        30.02R
WICHITA JABRA  CLOUDY    49  46  90 E3        30.02R
WINFIELD       CLOUDY    50  44  80 E9        30.04R
$$

KSZ007>012-019>026-033>040-048>060-102>105-281400-
NORTHEAST KANSAS

CITY           SKY/WX    TMP DP  RH WIND       PRES   REMARKS
CONCORDIA      CLOUDY    41  41 100 E3        30.05R FOG
EMPORIA        CLOUDY    49  47  93 E6        30.03R
LAWRENCE       CLOUDY    49  46  90 NE8       30.06R
MANHATTAN      CLOUDY    45  42  89 N3        30.05R
OLATHE IND     CLOUDY    49  46  90 NE6       30.05R
OLATHE EXE     CLOUDY    47  47 100 NE7       30.04R
SALINA         CLOUDY    49  46  90 SE3       30.04R
TOPEKA BILLARD CLOUDY    45  45 100 CALM      30.05R
TOPEKA FORBES  MOCLDY    49  44  83 CALM      30.04R
$$




USA.gov is the U.S. government's official web portal to all federal, state and local government web resources and services.